CT2IRK-11 Weather Reports


time (UTC)temp
C
wind
direction
speed
KPH
gust
KPH
rain 1hr
cm
rain 24hr
cm
rain mn
cm
humidity
%
barometer
mb
20260831092005 23 342 16.1 22.5 0.00 0.00 0.00 53 1013.4
20260831090005 23 44 14.5 20.9 0.00 0.00 0.00 57 1013.4
20260831085004 22 45 16.1 20.9 0.00 0.00 0.00 59 1013.4
20260831084005 22 349 16.1 24.1 0.00 0.00 0.00 63 1013.4
20260831083005 22 339 14.5 24.1 0.00 0.00 0.00 65 1013.4
20260831082004 21 26 12.9 22.5 0.00 0.00 0.00 68 1013.3
20260831081005 21 354 12.9 20.9 0.00 0.00 0.00 70 1013.4
20260831080004 21 348 11.3 19.3 0.00 0.00 0.00 74 1013.4
20260831075004 20 45 12.9 19.3 0.00 0.00 0.00 77 1013.3
20260831074005 20 38 9.7 16.1 0.00 0.00 0.00 79 1013.3
20260831073004 19 22 11.3 14.5 0.00 0.00 0.00 82 1013.1
20260831072005 19 45 9.7 12.9 0.00 0.00 0.00 84 1013.0
20260831071005 18 25 8.0 12.9 0.00 0.00 0.00 86 1012.8
20260831064006 16 22 6.4 11.3 0.00 0.00 0.00 99 1012.7
20260831063006 16 49 6.4 11.3 0.00 0.00 0.00 99 1012.8
20260831062005 16 55 9.7 16.1 0.00 0.00 0.00 99 1012.8
20260831061007 16 35 9.7 12.9 0.00 0.00 0.00 99 1012.6
20260831060007 16 45 9.7 9.7 0.00 0.00 0.00 99 1012.5
20260831055008 16 22 8.0 12.9 0.00 0.00 0.00 99 1012.6
20260831054007 17 48 4.8 14.5 0.00 0.00 0.00 99 1012.6
20260831053006 17 43 9.7 12.9 0.00 0.00 0.00 99 1012.8
20260831052006 17 34 9.7 12.9 0.00 0.00 0.00 99 1012.6
20260831045006 17 22 6.4 11.3 0.00 0.00 0.00 99 1012.6
20260831044006 17 24 9.7 12.9 0.00 0.00 0.00 99 1012.6
20260831043006 17 66 8.0 12.9 0.00 0.00 0.00 99 1012.7
20260831042005 17 41 8.0 11.3 0.00 0.00 0.00 98 1012.6
20260831041006 17 61 9.7 11.3 0.00 0.00 0.00 98 1012.7
20260831040005 17 40 8.0 12.9 0.00 0.00 0.00 97 1012.8
20260831035006 17 33 6.4 16.1 0.00 0.00 0.00 97 1012.8
20260831034006 17 40 9.7 12.9 0.00 0.00 0.00 97 1012.8
20260831032005 17 56 6.4 14.5 0.00 0.00 0.00 96 1012.8
20260831031005 17 22 8.0 12.9 0.00 0.00 0.00 96 1012.9
20260831025006 17 22 9.7 14.5 0.00 0.00 0.00 95 1013.0
20260831024005 17 38 8.0 12.9 0.00 0.00 0.00 95 1013.0
20260831023006 17 22 9.7 14.5 0.00 0.00 0.00 95 1013.1
20260831022005 17 36 6.4 11.3 0.00 0.00 0.00 95 1013.1
20260831021006 17 45 8.0 11.3 0.00 0.00 0.00 95 1013.0
20260831020005 17 20 8.0 11.3 0.00 0.00 0.00 95 1013.1
20260831014005 17 22 9.7 12.9 0.00 0.00 0.00 92 1013.3
20260831012006 17 328 9.7 16.1 0.00 0.00 0.00 91 1013.2
20260831011005 17 14 8.0 12.9 0.00 0.00 0.00 91 1013.3
20260831010006 17 22 8.0 11.3 0.00 0.00 0.00 91 1013.3
20260831005005 17 24 9.7 12.9 0.00 0.00 0.00 91 1013.3
20260831002006 17 28 8.0 19.3 0.00 0.00 0.00 91 1013.4
20260831001005 18 41 11.3 20.9 0.00 0.00 0.00 89 1013.3
20260831000005 18 38 11.3 19.3 0.00 0.00 0.00 89 1013.5
20260830235006 18 22 11.3 14.5 0.00 0.00 0.00 89 1013.7
20260830234005 18 63 9.7 16.1 0.00 0.00 0.00 89 1013.7
20260830231006 18 29 11.3 19.3 0.00 0.00 0.00 88 1013.5
20260830230009 18 35 9.7 16.1 0.00 0.00 0.00 87 1013.6
20260830224005 18 72 4.8 16.1 0.00 0.00 0.00 85 1013.5
20260830223005 18 10 8.0 20.9 0.00 0.00 0.00 83 1013.4
20260830222005 19 32 11.3 16.1 0.00 0.00 0.00 83 1013.4
20260830220004 19 19 12.9 24.1 0.00 0.00 0.00 81 1013.2
20260830215005 19 353 11.3 16.1 0.00 0.00 0.00 82 1013.3
20260830214005 19 348 12.9 24.1 0.00 0.00 0.00 81 1013.3
20260830213005 20 0 16.1 19.3 0.00 0.00 0.00 81 1013.3
20260830212005 20 343 11.3 16.1 0.00 0.00 0.00 81 1013.2
20260830211006 20 6 11.3 19.3 0.00 0.00 0.00 80 1013.1
20260830210004 20 11 11.3 16.1 0.00 0.00 0.00 78 1013.2
20260830205006 20 13 12.9 19.3 0.00 0.00 0.00 76 1012.9
20260830204005 21 21 14.5 16.1 0.00 0.00 0.00 75 1012.9
20260830203005 21 22 9.7 12.9 0.00 0.00 0.00 74 1012.8
20260830202004 21 16 9.7 20.9 0.00 0.00 0.00 72 1012.6
20260830200005 22 22 14.5 20.9 0.00 0.00 0.00 69 1012.3
20260830194005 22 14 11.3 19.3 0.00 0.00 0.00 69 1012.2
20260830193005 22 27 9.7 16.1 0.00 0.00 0.00 68 1012.0
20260830192005 23 2 8.0 16.1 0.00 0.00 0.00 67 1011.8
20260830191005 23 15 9.7 16.1 0.00 0.00 0.00 65 1011.9
20260830185005 25 338 11.3 16.1 0.00 0.00 0.00 61 1011.8
20260830184005 25 359 11.3 22.5 0.00 0.00 0.00 58 1011.8
20260830183005 26 12 14.5 20.9 0.00 0.00 0.00 56 1011.6
20260830182005 26 10 11.3 16.1 0.00 0.00 0.00 55 1011.7
20260830181005 27 349 14.5 19.3 0.00 0.00 0.00 52 1011.6
20260830180005 27 0 14.5 22.5 0.00 0.00 0.00 53 1011.5
20260830175005 27 354 14.5 22.5 0.00 0.00 0.00 52 1011.4
20260830171005 28 22 11.3 20.9 0.00 0.00 0.00 49 1011.3
20260830165014 29 53 8.0 16.1 0.00 0.00 0.00 47 1011.2
20260830164005 28 0 14.5 20.9 0.00 0.00 0.00 47 1011.2
20260830163005 29 311 16.1 20.9 0.00 0.00 0.00 46 1011.2
20260830162006 29 338 16.1 20.9 0.00 0.00 0.00 45 1011.3
20260830161005 29 338 16.1 24.1 0.00 0.00 0.00 45 1011.0
20260830160004 30 28 11.3 19.3 0.00 0.00 0.00 43 1011.2
20260830155005 30 0 12.9 19.3 0.00 0.00 0.00 43 1011.1
20260830153006 30 324 12.9 16.1 0.00 0.00 0.00 44 1011.1
20260830152005 30 5 16.1 22.5 0.00 0.00 0.00 42 1011.2
20260830151005 30 350 14.5 22.5 0.00 0.00 0.00 44 1011.3
20260830145005 30 316 11.3 19.3 0.00 0.00 0.00 45 1011.5
20260830144004 30 23 4.8 19.3 0.00 0.00 0.00 46 1011.5
20260830143005 30 19 11.3 16.1 0.00 0.00 0.00 45 1011.4
20260830142005 30 35 9.7 16.1 0.00 0.00 0.00 46 1011.6
20260830141005 30 5 11.3 19.3 0.00 0.00 0.00 46 1011.6
20260830140005 30 6 9.7 19.3 0.00 0.00 0.00 46 1011.7
20260830133005 30 338 8.0 19.3 0.00 0.00 0.00 46 1011.8
20260830132004 30 349 11.3 16.1 0.00 0.00 0.00 47 1011.9
20260830131005 30 49 14.5 16.1 0.00 0.00 0.00 47 1011.9
20260830130005 30 64 9.7 16.1 0.00 0.00 0.00 47 1012.1
20260830124005 30 37 8.0 19.3 0.00 0.00 0.00 46 1012.2
20260830123005 30 353 11.3 24.1 0.00 0.00 0.00 48 1012.2
20260830122005 29 16 9.7 19.3 0.00 0.00 0.00 48 1012.4
20260830120004 30 311 11.3 16.1 0.00 0.00 0.00 47 1012.5
20260830115004 30 32 1.6 9.7 0.00 0.00 0.00 49 1012.6
20260830114004 29 338 9.7 11.3 0.00 0.00 0.00 52 1012.6
20260830113004 29 329 8.0 12.9 0.00 0.00 0.00 51 1012.7
20260830112005 28 295 11.3 16.1 0.00 0.00 0.00 54 1012.8
20260830111005 28 310 9.7 16.1 0.00 0.00 0.00 55 1012.9
20260830110006 28 331 8.0 16.1 0.00 0.00 0.00 58 1013.1
20260830105004 27 291 1.6 12.9 0.00 0.00 0.00 59 1013.0
20260830103005 26 352 9.7 14.5 0.00 0.00 0.00 63 1012.9
20260830102005 26 1 9.7 16.1 0.00 0.00 0.00 63 1013.0
20260830101004 26 5 9.7 19.3 0.00 0.00 0.00 64 1013.0
20260830095006 26 13 9.7 14.5 0.00 0.00 0.00 68 1012.7
20260830094004 25 10 11.3 12.9 0.00 0.00 0.00 71 1012.7
20260830093005 25 12 8.0 16.1 0.00 0.00 0.00 71 1012.8